Weather History for Buffalo, NY

Change the Weather History Date:

Wednesday, October 2, 2013

  Actual Average Record
Temperature  
Mean Temperature 64 °F 56 °F  
Max Temperature 72 °F 64 °F 92 °F (1927)
Min Temperature 56 °F 47 °F 33 °F (1974)
Degree Days  
Heating Degree Days 1 10  
Month to date heating degree days 1 19  
Since 1 July heating degree days 169 181  
Cooling Degree Days 0 0  
Month to date cooling degree days 0 0  
Year to date cooling degree days 603 540  
Growing Degree Days 16 (Base 50)    
Moisture  
Dew Point 61 °F    
Average Humidity 81    
Maximum Humidity 93    
Minimum Humidity 68    
Precipitation  
Precipitation 0.00 in 0.12 in 2.30 in (1881)
Month to date precipitation 0.00 0.24  
Year to date precipitation 31.16 29.30  
Snow  
Snow 0.00 in 0.00 in T in (2003)
Month to date snowfall 0.0 0.0  
Since 1 July snowfall 0.0 0.0  
Since 1 September snowfall 0.0 0.0  
Snow Depth 0.00 in    
Sea Level Pressure  
Sea Level Pressure 30.00 in    
Wind  
Wind Speed 10 mph (WSW)    
Max Wind Speed 18 mph    
Max Gust Speed 24 mph    
Visibility 9 miles    
Events      
T = Trace of Precipitation, MM = Missing Value Source: NWS Daily Summary

Daily Weather History Graph

Daily Weather History Graph

Search for Another Location

Airport:

Trip Planner

Search our weather history database for the weather conditions in past years. The results will help you decide how hot, cold, wet, or windy it might be!

Date:

Astronomy

Oct. 02, 2013 Rise Set
Actual Time 7:13 AM EDT 6:54 PM EDT
Civil Twilight 6:45 AM EDT 7:22 PM EDT
Nautical Twilight 6:12 AM EDT 7:55 PM EDT
Astronomical Twilight 5:39 AM EDT 8:28 PM EDT
Moon 4:41 AM EDT (10/2) 5:31 PM EDT (10/2)
Length of Visible Light 12h 36m
Length of Day
11h 40m
Waning Crescent, 6% of the Moon is Illuminated
Oct 2
Waning Crescent
Oct 4
New
Oct 11
First Quarter
Oct 18
Full
Oct 26
Last Quarter

Hourly Weather History & Observations

Time (EDT) Temp. Dew Point Humidity Pressure Visibility Wind Dir Wind Speed Gust Speed Precip Events Conditions
12:54 AM 64.9 °F 59.0 °F 81% 29.94 in 10.0 mi WSW 11.5 mph - N/A   Clear
1:54 AM 64.9 °F 61.0 °F 87% 29.94 in 10.0 mi SW 11.5 mph - N/A   Partly Cloudy
2:54 AM 66.9 °F 62.1 °F 84% 29.95 in 9.0 mi WSW 11.5 mph - N/A   Partly Cloudy
3:54 AM 66.9 °F 62.1 °F 84% 29.94 in 9.0 mi WSW 13.8 mph 20.7 mph N/A   Mostly Cloudy
4:54 AM 66.9 °F 61.0 °F 81% 29.94 in 10.0 mi SW 11.5 mph - N/A   Mostly Cloudy
5:54 AM 66.9 °F 61.0 °F 81% 29.94 in 10.0 mi WSW 12.7 mph 20.7 mph N/A   Overcast
6:35 AM 66.2 °F 62.6 °F 88% 29.96 in 10.0 mi WSW 13.8 mph 20.7 mph N/A   Overcast
6:54 AM 66.9 °F 62.1 °F 84% 29.96 in 10.0 mi WSW 15.0 mph - N/A   Overcast
7:54 AM 66.9 °F 63.0 °F 87% 29.97 in 8.0 mi WSW 12.7 mph - N/A   Overcast
8:54 AM 66.9 °F 63.0 °F 87% 29.99 in 8.0 mi WSW 10.4 mph - N/A   Overcast
9:54 AM 66.9 °F 62.1 °F 84% 30.00 in 8.0 mi West 8.1 mph - N/A   Overcast
10:54 AM 68.0 °F 61.0 °F 78% 30.01 in 9.0 mi West 6.9 mph - N/A   Overcast
11:54 AM 68.0 °F 60.1 °F 76% 30.02 in 8.0 mi West 9.2 mph - N/A   Overcast
12:28 PM 69.8 °F 60.8 °F 73% 30.02 in 9.0 mi SW 12.7 mph - N/A   Scattered Clouds
12:54 PM 71.1 °F 60.1 °F 68% 30.02 in 9.0 mi SW 8.1 mph - N/A   Scattered Clouds
1:54 PM 71.1 °F 61.0 °F 70% 30.01 in 10.0 mi SW 11.5 mph - N/A   Scattered Clouds
2:54 PM 71.1 °F 60.1 °F 68% 30.02 in 10.0 mi SW 16.1 mph - N/A   Partly Cloudy
3:54 PM 71.1 °F 61.0 °F 70% 30.01 in 9.0 mi SW 13.8 mph - N/A   Partly Cloudy
4:54 PM 70.0 °F 61.0 °F 73% 30.02 in 8.0 mi SW 16.1 mph - N/A   Partly Cloudy
5:54 PM 68.0 °F 61.0 °F 78% 30.02 in 8.0 mi WSW 13.8 mph - N/A   Partly Cloudy
6:54 PM 66.0 °F 61.0 °F 84% 30.04 in 10.0 mi WSW 10.4 mph - N/A   Partly Cloudy
7:54 PM 64.9 °F 61.0 °F 87% 30.04 in 10.0 mi SW 8.1 mph - N/A   Clear
8:54 PM 64.0 °F 62.1 °F 93% 30.05 in 7.0 mi SW 6.9 mph - N/A   Clear
9:54 PM 63.0 °F 61.0 °F 93% 30.07 in 8.0 mi Variable 4.6 mph - N/A   Partly Cloudy
10:54 PM 61.0 °F 57.9 °F 90% 30.09 in 8.0 mi Calm Calm - N/A   Clear
11:54 PM 60.1 °F 52.0 °F 75% 30.10 in 10.0 mi Calm Calm - N/A   Clear